Regional Weather Roundup
Issued by NWS

Home | Current Version | Previous Version | Text Only | Print | Product List | Glossary Off
Versions: 1 2 3 4 5 6 7 8 9 10 11 12 13 14 15 16 17 18 19 20 21 22 23 24 25 26 27 28 29 30 31 32 33 34 35 36 37 38 39 40 41 42 43 44 45 46 47 48 49 50

000
ASUS44 KMEG 242310
RWRTN
TENNESSEE HOURLY STATE WEATHER ROUNDUP
NATIONAL WEATHER SERVICE MEMPHIS TN
600 PM CDT SUN JUL 24 2016

TNZ002-004-019-021-049-052-054-088>092-250000-
WEST TENNESSEE

CITY           SKY/WX    TMP DP  RH WIND       PRES   REMARKS
MEMPHIS INTL   MOSUNNY   91  74  57 VRB5      29.95R HX 100
NWS MEMPHIS      N/A     92 N/A N/A MISG        N/A
JACKSON        PTSUNNY   92  75  57 W5        29.95S HX 103
DYERSBURG      SUNNY     91  75  59 MISG      29.94R HX 102
UNION CITY     SUNNY     91  75  59 CALM      29.93S HX 102
PARIS          SUNNY     90  73  58 CALM      29.97S HX  98
LEXINGTON      MOSUNNY   77  75  94 CALM      29.97S
$$

TNZ008-025-027-028-033-062-065-066-250000-
NORTH MIDDLE TENNESSEE

CITY           SKY/WX    TMP DP  RH WIND       PRES   REMARKS
NASHVILLE      PTSUNNY   92  70  48 E6        29.97S HX  97
CLARKSVILLE    CLOUDY    91  73  55 SE3       29.96S HX  99
SMYRNA         PTSUNNY   94  73  50 E3        29.98S HX 103
COOKEVILLE     PTSUNNY   93  75  55 S3        30.01R HX 104
CROSSVILLE     CLOUDY    84  72  67 N3        30.08S
$$

TNZ061-075-076-078-094-096-097-250000-
SOUTH MIDDLE TENNESSEE

CITY           SKY/WX    TMP DP  RH WIND       PRES   REMARKS
FAYETTEVILLE   SUNNY     82  73  74 SE6       30.01S
TULLAHOMA      SUNNY     84  70  61 SW6       30.04R
WINCHESTER     MOSUNNY   82  73  74 SE8       30.02S
MCMINNVILLE    SUNNY     91  77  62 SE3       30.01F HX 105
COLUMBIA       MOSUNNY   91  75  59 S8        29.97R HX 102
SHELBYVILLE    SUNNY     93  77  59 SE5       29.99F HX 107
$$

TNZ017-018-042-046-047-250000-
NORTHEAST TENNESSEE

CITY           SKY/WX    TMP DP  RH WIND       PRES   REMARKS
TRI CITIES     PTSUNNY   91  69  48 S6        30.03S HX  96
ELIZABETHTON   MOSUNNY   86  70  58 E5        30.05F HX  90
$$

TNZ012-013-036-069-073-074-250000-
CENTRAL EAST TENNESSEE

CITY           SKY/WX    TMP DP  RH WIND       PRES   REMARKS
KNOXVILLE      PTSUNNY   92  68  45 W7        29.99F HX  96
OAK RIDGE      SUNNY     93  68  43 VRB3      30.01F HX  97
GATLINBURG       N/A     90  70  51 S6        30.00F HX  95
MORRISTOWN     SUNNY     93  68  43 SW9       30.01F HX  97
$$

TNZ083-085-099-250000-
SOUTHEAST TENNESSEE

CITY           SKY/WX    TMP DP  RH WIND       PRES   REMARKS
CHATTANOOGA    PTSUNNY   84  75  74 W7        29.99S HX  92
$$

SKY/WX REPORTED AS FAIR MEANS FEW OR NO CLOUDS BELOW
12 THOUSAND FEET.




USA.gov is the U.S. government's official web portal to all federal, state and local government web resources and services.